VJT681 KTEB-EDDB

Flight info

Callsign VJT681
Flight time N/A
Altitude 41000
Route BREZY V39 CMK/N0468F330 DCT BAYYS/N0465F350 Q22 FOXWD Q439 BEEKN Q480 ENE Q822 ALLEX N685B NEEKO/M080F380 NATT SOVED/N0450F390 DCT MIMKU DCT TLA DCT RENEQ DCT BUMIL L619 VIBIS T209 OGBER OGBER1R
Aircraft CL60/M-ICAO/HB1D1

Departure

Time 2026-04-29 00:03
Airport Teterboro Airport (KTEB)

Arrival

Time N/A
Airport Berlin Brandenburg Airport (EDDB)
Time Latitude Longitude Altitude Speed Heading
2026-04-28 22:53 40.84204 -74.06536 11 ft 0 kts 298°
2026-04-28 23:50 40.84206 -74.06540 11 ft 5 kts 296°
2026-04-28 23:51 40.84211 -74.06554 11 ft 0 kts 294°
2026-04-28 23:51 40.84188 -74.06510 11 ft 0 kts 325°
2026-04-28 23:51 40.84176 -74.06504 11 ft 0 kts 353°
2026-04-28 23:51 40.84204 -74.06499 11 ft 11 kts 14°
2026-04-28 23:52 40.84224 -74.06490 11 ft 0 kts 19°
2026-04-28 23:52 40.84225 -74.06490 11 ft 0 kts 20°
2026-04-28 23:52 40.84237 -74.06484 11 ft 0 kts 18°
2026-04-28 23:53 40.84248 -74.06390 11 ft 13 kts 97°
2026-04-28 23:54 40.84244 -74.06320 11 ft 0 kts 92°
2026-04-28 23:57 40.84243 -74.06278 11 ft 10 kts 92°
2026-04-28 23:57 40.84241 -74.06237 11 ft 0 kts 93°
2026-04-28 23:58 40.84241 -74.06236 11 ft 2 kts 93°
2026-04-28 23:58 40.84249 -74.06152 11 ft 1 kts 25°
2026-04-28 23:58 40.84317 -74.06151 11 ft 16 kts
2026-04-28 23:58 40.84441 -74.06142 11 ft 19 kts
2026-04-28 23:59 40.84582 -74.06132 11 ft 21 kts
2026-04-28 23:59 40.84736 -74.06119 11 ft 23 kts
2026-04-28 23:59 40.84878 -74.06109 11 ft 5 kts
2026-04-28 23:59 40.84943 -74.06104 11 ft 12 kts
2026-04-29 00:00 40.85041 -74.06099 11 ft 15 kts
2026-04-29 00:00 40.85157 -74.06087 11 ft 17 kts
2026-04-29 00:00 40.85290 -74.06078 11 ft 20 kts
2026-04-29 00:00 40.85437 -74.06068 11 ft 22 kts
2026-04-29 00:01 40.85597 -74.06058 11 ft 24 kts
2026-04-29 00:01 40.85735 -74.06047 11 ft 5 kts
2026-04-29 00:01 40.85782 -74.06011 11 ft 0 kts 86°
2026-04-29 00:01 40.85783 -74.05985 11 ft 6 kts 87°
2026-04-29 00:02 40.85770 -74.05908 11 ft 9 kts 141°
2026-04-29 00:02 40.85747 -74.05899 11 ft 0 kts 180°
2026-04-29 00:02 40.85713 -74.05901 11 ft 26 kts 182°
2026-04-29 00:02 40.85145 -74.05943 11 ft 130 kts 182°
2026-04-29 00:03 40.84069 -74.06030 423 ft 171 kts 185°
2026-04-29 00:03 40.82871 -74.06132 1392 ft 182 kts 186°
2026-04-29 00:03 40.81639 -74.06881 1915 ft 217 kts 224°
2026-04-29 00:03 40.80943 -74.08768 1997 ft 249 kts 261°
2026-04-29 00:04 40.80990 -74.11179 2009 ft 279 kts 282°
2026-04-29 00:04 40.81850 -74.13481 2638 ft 281 kts 309°
2026-04-29 00:04 40.83363 -74.15039 3358 ft 279 kts 335°
2026-04-29 00:04 40.85261 -74.15573 3955 ft 282 kts 360°
2026-04-29 00:05 40.87237 -74.15449 4485 ft 286 kts
2026-04-29 00:05 40.89248 -74.15305 5021 ft 290 kts
2026-04-29 00:05 40.91247 -74.15167 5548 ft 293 kts
2026-04-29 00:05 40.93299 -74.15025 6011 ft 298 kts
2026-04-29 00:06 40.95416 -74.14880 6484 ft 302 kts
2026-04-29 00:06 40.97507 -74.14736 7034 ft 302 kts
2026-04-29 00:06 40.99619 -74.14591 7569 ft 302 kts
2026-04-29 00:06 41.01702 -74.14449 8040 ft 304 kts
2026-04-29 00:07 41.03816 -74.14304 8534 ft 305 kts
2026-04-29 00:07 41.05967 -74.14158 8993 ft 306 kts
2026-04-29 00:07 41.08082 -74.14014 9421 ft 308 kts
2026-04-29 00:07 41.10234 -74.13866 9832 ft 310 kts
2026-04-29 00:08 41.12402 -74.13420 10183 ft 316 kts 14°
2026-04-29 00:08 41.14467 -74.12295 10518 ft 321 kts 28°
2026-04-29 00:08 41.16273 -74.10530 10944 ft 323 kts 41°
2026-04-29 00:08 41.17721 -74.08257 11417 ft 324 kts 54°
2026-04-29 00:09 41.18745 -74.05538 11753 ft 330 kts 68°
2026-04-29 00:09 41.19250 -74.02548 11933 ft 340 kts 82°
2026-04-29 00:09 41.19187 -73.99333 12159 ft 347 kts 97°
2026-04-29 00:09 41.18519 -73.96244 12520 ft 349 kts 111°
2026-04-29 00:10 41.17636 -73.93256 12906 ft 346 kts 100°
2026-04-29 00:10 41.17609 -73.90081 13249 ft 337 kts 75°
2026-04-29 00:10 41.18099 -73.87051 13580 ft 336 kts 74°
2026-04-29 00:10 41.18593 -73.84022 13923 ft 336 kts 74°
2026-04-29 00:11 41.19081 -73.80929 14280 ft 337 kts 75°
2026-04-29 00:11 41.19542 -73.77909 14602 ft 337 kts 75°
2026-04-29 00:11 41.20438 -73.71744 15247 ft 337 kts 76°
2026-04-29 00:12 41.20862 -73.68674 15555 ft 337 kts 76°
2026-04-29 00:12 41.21273 -73.65582 15850 ft 337 kts 77°
2026-04-29 00:12 41.21673 -73.62453 16147 ft 343 kts 77°
2026-04-29 00:12 41.22049 -73.59258 16626 ft 356 kts 78°
2026-04-29 00:13 41.22424 -73.55987 17383 ft 358 kts 78°
2026-04-29 00:13 41.22796 -73.52735 18119 ft 360 kts 78°
2026-04-29 00:13 41.23175 -73.49398 18842 ft 363 kts 79°
2026-04-29 00:13 41.23551 -73.46080 19463 ft 367 kts 79°
2026-04-29 00:14 41.23936 -73.42664 20095 ft 371 kts 79°
2026-04-29 00:14 41.24321 -73.39233 20677 ft 375 kts 79°
2026-04-29 00:14 41.24707 -73.35777 21278 ft 379 kts 79°
2026-04-29 00:14 41.25093 -73.32315 21783 ft 384 kts 81°
2026-04-29 00:15 41.25486 -73.28772 22355 ft 386 kts 81°
2026-04-29 00:15 41.25883 -73.25177 22857 ft 389 kts 81°
2026-04-29 00:15 41.26278 -73.21583 23396 ft 392 kts 81°
2026-04-29 00:15 41.26677 -73.17950 23907 ft 395 kts 81°
2026-04-29 00:16 41.27076 -73.14295 24394 ft 399 kts 81°
2026-04-29 00:16 41.27482 -73.10574 24920 ft 401 kts 82°
2026-04-29 00:16 41.27880 -73.06901 25463 ft 401 kts 82°
2026-04-29 00:16 41.28285 -73.03161 25882 ft 406 kts 82°
2026-04-29 00:17 41.28701 -72.99415 26278 ft 409 kts 79°
2026-04-29 00:17 41.29560 -72.95829 26732 ft 408 kts 62°
2026-04-29 00:17 41.30978 -72.92538 27087 ft 411 kts 58°
2026-04-29 00:17 41.32483 -72.89214 27443 ft 415 kts 57°
2026-04-29 00:18 41.33961 -72.85931 28066 ft 411 kts 58°
2026-04-29 00:18 41.35440 -72.82645 28508 ft 412 kts 58°
2026-04-29 00:18 41.36838 -72.79532 28662 ft 419 kts 58°
2026-04-29 00:18 41.37971 -72.76997 28815 ft 424 kts 58°
2026-04-29 00:19 41.39477 -72.73635 29103 ft 427 kts 58°
2026-04-29 00:19 41.40999 -72.70232 29433 ft 430 kts 58°
2026-04-29 00:19 41.42542 -72.66781 29725 ft 433 kts 59°
2026-04-29 00:19 41.44085 -72.63321 30008 ft 436 kts 58°
2026-04-29 00:20 41.45647 -72.59816 30334 ft 438 kts 58°
2026-04-29 00:20 41.47213 -72.56308 30589 ft 443 kts 58°
2026-04-29 00:20 41.48808 -72.52737 30912 ft 443 kts 58°
2026-04-29 00:20 41.50391 -72.49192 31148 ft 444 kts 58°
2026-04-29 00:21 41.51971 -72.45642 31320 ft 446 kts 58°
2026-04-29 00:21 41.53569 -72.42043 31453 ft 450 kts 58°
2026-04-29 00:21 41.55168 -72.38435 31597 ft 451 kts 58°
2026-04-29 00:21 41.56754 -72.34853 31783 ft 453 kts 58°
2026-04-29 00:22 41.58349 -72.31245 31972 ft 454 kts 58°
2026-04-29 00:22 41.59959 -72.27596 32126 ft 455 kts 58°
2026-04-29 00:22 41.61574 -72.23931 32279 ft 457 kts 58°
2026-04-29 00:22 41.63200 -72.20235 32419 ft 458 kts 58°
2026-04-29 00:23 41.64827 -72.16531 32576 ft 459 kts 58°
2026-04-29 00:23 41.66437 -72.12860 32723 ft 460 kts 58°
2026-04-29 00:23 41.68053 -72.09172 32806 ft 462 kts 58°
2026-04-29 00:23 41.69669 -72.05477 32962 ft 462 kts 58°
2026-04-29 00:24 41.71288 -72.01772 33095 ft 463 kts 57°
2026-04-29 00:24 41.72921 -71.98029 33213 ft 464 kts 57°
2026-04-29 00:24 41.74557 -71.94274 33330 ft 465 kts 58°
2026-04-29 00:24 41.76169 -71.90571 33447 ft 466 kts 57°
2026-04-29 00:25 41.77900 -71.86860 33534 ft 466 kts 51°
2026-04-29 00:25 41.82145 -71.80550 33657 ft 463 kts 37°
2026-04-29 00:25 41.84697 -71.77914 33808 ft 459 kts 29°
2026-04-29 00:26 41.87397 -71.75715 33978 ft 454 kts 23°
2026-04-29 00:26 41.90216 -71.73801 34123 ft 452 kts 21°
2026-04-29 00:26 41.93026 -71.71940 34242 ft 453 kts 21°
2026-04-29 00:26 41.95845 -71.70064 34387 ft 452 kts 21°
2026-04-29 00:27 41.98667 -71.68185 34504 ft 452 kts 21°
2026-04-29 00:27 42.01502 -71.66293 34615 ft 452 kts 21°
2026-04-29 00:27 42.04290 -71.64429 34776 ft 451 kts 21°
2026-04-29 00:27 42.07095 -71.62551 34930 ft 450 kts 21°